Location: Del Amo
(33.8464°N, 118.2104°W)
Time: 18:43:25
(UTC+00:00)

Vanguard 2 Rocket - Pass Details

Date: 14 September 2024
Orbit: 553 x 3299 km, 32.9° (Epoch: 05 October)

Event Time Altitude Azimuth Distance (km) Brightness Sun altitude
Rises 16:33:17 0° 284° (WNW) 6,901 10.9 35.2°
Reaches altitude 10° 16:38:20 10° 276° (W) 6,086 10.7 36.2°
Maximum altitude 16:54:45 34° 221° (SW) 4,474 10.6 39.2°
Drops below altitude 10° 17:09:43 10° 164° (SSE) 5,492 11.6 41.9°
Sets 17:14:04 0° 155° (SSE) 6,173 11.7 42.7°
